User: anonymous   Login
Location: Unspecified
(0.0000°N, 0.0000°E)
Time: 07:53:12
(UTC+00:00)
Language:

Gonets-D1 - Orbit

View from above orbital plane
View from above orbital plane
View from above satellite
View from above satellite

Ground track
Ground track

The orbit data is extracted from the following two-line orbital elements,

1 23788U 96009B   17328.46010795  .00000027  00000-0  90687-4 0  9998
2 23788  82.5672 144.9397 0006240 331.1430  28.9315 12.63139976  3552
Epoch (UTC): 24 November 2017 11:02:33
Eccentricity: 0.0006240
inclination: 82.5672°
perigee height: 1405 km
apogee height: 1415 km
right ascension of ascending node: 144.9397°
argument of perigee: 331.1430°
revolutions per day: 12.63139976
mean anomaly at epoch: 28.9315°
orbit number at epoch: 355

The dashed part of the orbit path shows where the satellite is in the earth's shadow,  

DLR